| time (UTC) | temp C | wind direction | speed KPH | gust KPH | rain 1hr cm | rain 24hr cm | rain mn cm | humidity % | barometer mb |
| 20260507181544 | 12 | 279 | 14.5 | 30.6 | 0.00 | 0.61 | 0.00 | 48 | 1006.5 |
| 20260507180049 | 12 | 302 | 22.5 | 30.6 | 0.00 | 0.61 | 0.00 | 49 | 1006.4 |
| 20260507174541 | 12 | 286 | 9.7 | 19.3 | 0.00 | 0.79 | 0.00 | 52 | 1006.4 |
| 20260507173036 | 12 | 283 | 11.3 | 24.1 | 0.00 | 0.79 | 0.00 | 54 | 1006.8 |
| 20260507171534 | 12 | 282 | 12.9 | 19.3 | 0.00 | 0.79 | 0.00 | 55 | 1006.9 |
| 20260507170035 | 11 | 281 | 12.9 | 17.7 | 0.00 | 0.79 | 0.00 | 60 | 1007.1 |
| 20260507164532 | 11 | 278 | 9.7 | 19.3 | 0.00 | 0.79 | 0.00 | 64 | 1007.1 |
| 20260507163032 | 11 | 290 | 9.7 | 25.7 | 0.00 | 0.79 | 0.00 | 60 | 1007.2 |
| 20260507161528 | 11 | 275 | 6.4 | 17.7 | 0.00 | 0.79 | 0.00 | 58 | 1007.3 |
| 20260507160028 | 11 | 290 | 12.9 | 19.3 | 0.00 | 0.79 | 0.00 | 65 | 1007.5 |
| 20260507154523 | 11 | 274 | 4.8 | 19.3 | 0.00 | 0.79 | 0.00 | 68 | 1007.5 |
| 20260507153018 | 11 | 278 | 6.4 | 17.7 | 0.00 | 0.79 | 0.00 | 66 | 1007.7 |
| 20260507151516 | 10 | 279 | 11.3 | 16.1 | 0.00 | 0.79 | 0.00 | 71 | 1007.8 |
| 20260507150014 | 10 | 276 | 6.4 | 20.9 | 0.00 | 0.79 | 0.00 | 71 | 1007.9 |
| 20260507144511 | 10 | 281 | 6.4 | 20.9 | 0.00 | 0.79 | 0.00 | 72 | 1008.0 |
| 20260507143010 | 10 | 264 | 9.7 | 14.5 | 0.00 | 0.79 | 0.00 | 75 | 1007.9 |
| 20260507141509 | 10 | 293 | 6.4 | 14.5 | 0.00 | 0.79 | 0.00 | 75 | 1008.0 |
| 20260507140009 | 10 | 274 | 12.9 | 17.7 | 0.00 | 0.79 | 0.00 | 76 | 1008.1 |
| 20260507134508 | 10 | 287 | 12.9 | 20.9 | 0.00 | 0.79 | 0.00 | 77 | 1008.2 |
| 20260507133005 | 9 | 278 | 12.9 | 17.7 | 0.00 | 0.79 | 0.00 | 78 | 1008.2 |
| 20260507131503 | 9 | 266 | 9.7 | 14.5 | 0.00 | 0.79 | 0.00 | 77 | 1008.4 |
| 20260507130001 | 8 | 273 | 9.7 | 14.5 | 0.00 | 0.79 | 0.00 | 77 | 1008.3 |
| 20260507124501 | 8 | 281 | 9.7 | 16.1 | 0.00 | 0.79 | 0.00 | 77 | 1008.2 |
| 20260507123106 | 8 | 279 | 8.0 | 17.7 | 0.00 | 0.79 | 0.00 | 77 | 1008.1 |
| 20260507121604 | 8 | 273 | 8.0 | 14.5 | 0.00 | 0.79 | 0.00 | 79 | 1008.3 |
| 20260507120057 | 7 | 267 | 8.0 | 11.3 | 0.00 | 0.79 | 0.00 | 80 | 1008.2 |
| 20260507114605 | 7 | 283 | 8.0 | 12.9 | 0.00 | 0.79 | 0.00 | 83 | 1008.3 |
| 20260507113054 | 7 | 278 | 8.0 | 12.9 | 0.00 | 0.79 | 0.00 | 85 | 1008.3 |
| 20260507111553 | 7 | 254 | 1.6 | 6.4 | 0.00 | 0.79 | 0.00 | 87 | 1008.1 |
| 20260507110050 | 6 | 285 | 1.6 | 8.0 | 0.00 | 0.79 | 0.00 | 88 | 1008.1 |
| 20260507104548 | 6 | 267 | 1.6 | 4.8 | 0.00 | 0.79 | 0.00 | 91 | 1007.8 |
| 20260507103047 | 6 | 34 | 0.0 | 1.6 | 0.00 | 0.79 | 0.00 | 92 | 1007.9 |
| 20260507101548 | 6 | 346 | 0.0 | 3.2 | 0.00 | 0.79 | 0.00 | 91 | 1008.1 |
| 20260507100045 | 6 | 3 | 0.0 | 1.6 | 0.00 | 0.79 | 0.00 | 91 | 1008.1 |
| 20260507094542 | 6 | 8 | 0.0 | 1.6 | 0.00 | 0.79 | 0.00 | 91 | 1008.0 |
| 20260507093041 | 6 | 305 | 1.6 | 3.2 | 0.00 | 0.79 | 0.00 | 90 | 1008.1 |
| 20260507091537 | 6 | 338 | 1.6 | 8.0 | 0.00 | 0.79 | 0.00 | 90 | 1007.6 |
| 20260507090034 | 6 | 290 | 0.0 | 6.4 | 0.00 | 0.79 | 0.00 | 90 | 1007.6 |
| 20260507084532 | 7 | 338 | 0.0 | 9.7 | 0.00 | 0.79 | 0.00 | 90 | 1007.5 |
| 20260507083037 | 7 | 295 | 1.6 | 6.4 | 0.00 | 0.79 | 0.00 | 90 | 1007.2 |
| 20260507081530 | 7 | 296 | 8.0 | 16.1 | 0.00 | 0.79 | 0.00 | 90 | 1007.2 |
| 20260507080028 | 7 | 286 | 9.7 | 17.7 | 0.00 | 0.79 | 0.00 | 90 | 1007.0 |
| 20260507074528 | 7 | 257 | 4.8 | 8.0 | 0.00 | 0.79 | 0.00 | 93 | 1007.1 |
| 20260507073022 | 7 | 262 | 0.0 | 6.4 | 0.00 | 0.79 | 0.00 | 91 | 1006.6 |
| 20260507071521 | 7 | 290 | 0.0 | 4.8 | 0.00 | 0.79 | 0.00 | 90 | 1006.6 |
| 20260507070021 | 7 | 277 | 0.0 | 9.7 | 0.00 | 0.79 | 0.00 | 90 | 1006.9 |
| 20260507064519 | 7 | 279 | 0.0 | 4.8 | 0.00 | 0.79 | 0.00 | 91 | 1006.9 |
| 20260507063018 | 7 | 222 | 0.0 | 4.8 | 0.00 | 0.79 | 0.00 | 90 | 1006.9 |
| 20260507061514 | 7 | 270 | 1.6 | 17.7 | 0.00 | 0.79 | 0.00 | 90 | 1006.5 |
| 20260507060013 | 8 | 284 | 4.8 | 12.9 | 0.00 | 0.79 | 0.00 | 90 | 1006.6 |
| 20260507054604 | 8 | 287 | 3.2 | 16.1 | 0.00 | 0.79 | 0.00 | 91 | 1006.6 |
| 20260507053056 | 8 | 301 | 9.7 | 20.9 | 0.00 | 0.79 | 0.00 | 91 | 1006.2 |
| 20260507051550 | 8 | 311 | 1.6 | 6.4 | 0.00 | 0.79 | 0.00 | 91 | 1006.2 |
| 20260507050048 | 8 | 274 | 6.4 | 12.9 | 0.00 | 0.79 | 0.00 | 90 | 1006.3 |
| 20260507044546 | 8 | 288 | 6.4 | 16.1 | 0.00 | 0.79 | 0.00 | 90 | 1006.3 |
| 20260507043044 | 8 | 274 | 9.7 | 19.3 | 0.00 | 0.79 | 0.00 | 90 | 1006.3 |
| 20260507041542 | 8 | 285 | 14.5 | 19.3 | 0.00 | 0.79 | 0.00 | 91 | 1006.3 |
| 20260507040048 | 8 | 286 | 14.5 | 24.1 | 0.03 | 0.79 | 0.00 | 91 | 1006.2 |
| 20260507034544 | 9 | 269 | 17.7 | 24.1 | 0.03 | 0.79 | 0.79 | 91 | 1006.0 |
| 20260507033039 | 9 | 276 | 16.1 | 22.5 | 0.03 | 0.79 | 0.79 | 91 | 1006.2 |
| 20260507031533 | 9 | 276 | 9.7 | 16.1 | 0.03 | 0.79 | 0.79 | 92 | 1006.1 |
| 20260507030032 | 9 | 318 | 4.8 | 12.9 | 0.03 | 0.76 | 0.76 | 92 | 1006.2 |
| 20260507024528 | 10 | 289 | 9.7 | 19.3 | 0.03 | 0.76 | 0.76 | 91 | 1006.0 |
| 20260507023029 | 10 | 271 | 14.5 | 24.1 | 0.03 | 0.76 | 0.76 | 92 | 1005.8 |
| 20260507021522 | 10 | 272 | 12.9 | 22.5 | 0.03 | 0.76 | 0.76 | 92 | 1005.6 |
| 20260507020019 | 11 | 262 | 14.5 | 20.9 | 0.03 | 0.71 | 0.71 | 92 | 1005.5 |
| 20260507014516 | 11 | 271 | 12.9 | 19.3 | 0.05 | 0.71 | 0.71 | 93 | 1005.4 |
| 20260507013011 | 11 | 266 | 4.8 | 16.1 | 0.08 | 0.71 | 0.71 | 94 | 1005.0 |
| 20260507011514 | 11 | 274 | 1.6 | 9.7 | 0.18 | 0.71 | 0.71 | 95 | 1005.0 |
| 20260507010007 | 12 | 287 | 1.6 | 6.4 | 0.15 | 0.71 | 0.71 | 95 | 1005.0 |
| 20260507004510 | 12 | 262 | 3.2 | 14.5 | 0.15 | 0.69 | 0.69 | 94 | 1004.9 |
| 20260507003007 | 13 | 281 | 8.0 | 16.1 | 0.13 | 0.64 | 0.64 | 93 | 1004.7 |
| 20260507001503 | 14 | 281 | 1.6 | 4.8 | 0.05 | 0.56 | 0.56 | 95 | 1004.3 |
| 20260507000003 | 14 | 272 | 1.6 | 4.8 | 0.05 | 0.56 | 0.56 | 95 | 1004.1 |
| 20260506234506 | 14 | 285 | 1.6 | 6.4 | 0.03 | 0.53 | 0.53 | 92 | 1004.2 |
| 20260506233002 | 15 | 221 | 3.2 | 11.3 | 0.00 | 0.51 | 0.51 | 91 | 1004.0 |
| 20260506231501 | 15 | 240 | 4.8 | 9.7 | 0.00 | 0.51 | 0.51 | 90 | 1004.0 |
| 20260506230100 | 15 | 233 | 4.8 | 11.3 | 0.00 | 0.51 | 0.51 | 90 | 1003.9 |
| 20260506224559 | 15 | 181 | 3.2 | 16.1 | 0.00 | 0.51 | 0.51 | 90 | 1003.9 |
| 20260506223058 | 15 | 226 | 6.4 | 16.1 | 0.00 | 0.51 | 0.51 | 90 | 1004.1 |
| 20260506221557 | 15 | 207 | 4.8 | 12.9 | 0.00 | 0.51 | 0.51 | 90 | 1004.1 |
| 20260506220107 | 15 | 224 | 6.4 | 16.1 | 0.00 | 0.51 | 0.51 | 90 | 1004.1 |
| 20260506214555 | 15 | 210 | 6.4 | 12.9 | 0.00 | 0.51 | 0.51 | 91 | 1004.2 |
| 20260506213100 | 15 | 144 | 4.8 | 22.5 | 0.00 | 0.51 | 0.51 | 91 | 1004.4 |
| 20260506211551 | 14 | 119 | 3.2 | 6.4 | 0.00 | 0.51 | 0.51 | 93 | 1004.5 |
| 20260506210100 | 14 | 99 | 3.2 | 9.7 | 0.03 | 0.51 | 0.51 | 95 | 1004.5 |
| 20260506204551 | 14 | 97 | 0.0 | 4.8 | 0.10 | 0.51 | 0.51 | 94 | 1004.6 |
| 20260506203135 | 15 | 103 | 0.0 | 1.6 | 0.18 | 0.51 | 0.51 | 94 | 1004.8 |
| 20260506201547 | 15 | 291 | 0.0 | 4.8 | 0.20 | 0.51 | 0.51 | 93 | 1005.1 |
| 20260506200048 | 15 | 250 | 0.0 | 4.8 | 0.20 | 0.48 | 0.48 | 92 | 1005.1 |
| 20260506194541 | 15 | 238 | 1.6 | 6.4 | 0.15 | 0.41 | 0.41 | 91 | 1005.3 |
| 20260506193039 | 15 | 255 | 1.6 | 8.0 | 0.08 | 0.33 | 0.33 | 90 | 1005.4 |
| 20260506191537 | 15 | 167 | 3.2 | 12.9 | 0.10 | 0.30 | 0.30 | 91 | 1005.7 |
| 20260506190045 | 15 | 143 | 1.6 | 11.3 | 0.10 | 0.28 | 0.28 | 91 | 1005.6 |
| 20260506184541 | 15 | 212 | 4.8 | 8.0 | 0.15 | 0.25 | 0.25 | 92 | 1005.9 |
| 20260506183034 | 15 | 160 | 1.6 | 4.8 | 0.18 | 0.25 | 0.25 | 93 | 1005.9 |